Tracking 27371 objects as of 8-Jun-2023
HD Live streaming from Space Station
objects crossing your sky now

STARLINK-4474

Track STARLINK-4474 now!
10-day predictions
STARLINK-4474 is classified as:


NORAD ID: 53547
Int'l Code: 2022-101W
Perigee: 546.2 km
Apogee: 547.5 km
Inclination: 53.2 °
Period: 95.4 minutes
Semi major axis: 6917 km
RCS: Unknown
Launch date: August 19, 2022
Source: United States (US)
Launch site: AIR FORCE EASTERN TEST RANGE (AFETR)
Your satellite tracking list
Your tracking list is empty




NASA's NSSDC Master Catalog

Two Line Element Set (TLE):
1 53547U 22101W   23158.70417724  .00000620  00000-0  57055-4 0  9995
2 53547  53.2155 260.1667 0000948  85.7963 274.3138 15.08840050 45103
Source of the keplerian elements: AFSPC